When you browse on this site, cookies collect data to enhance your experience and personalize the content and advertising you see.
Visit our Privacy Policy to learn more. By continuing to use the site, you agree to this use of cookies and data.
  • în România
  • Lista ţărilor
  • Pe 7 zile
  • Temperatura apei
  • Hartă satelitară
  • Meteo pe hartă
  • Widget-uri
  • user-avatar
    Intrare

    Meteo pe oră la Niegardow

    Astăzi, 22 Februarie, Vineri

    Timp Temperatura Precipitaţii Vânt Presiune Umiditate
    00:00 +5°C° 0.4 mm 5 m/s 744 mmHg 87%
    01:00 +4°C° 0 mm 4 m/s 744 mmHg 87%
    02:00 +4°C° 0.6 mm 4 m/s 744 mmHg 88%
    03:00 +5°C° 0.6 mm 5 m/s 744 mmHg 89%
    04:00 +5°C° 0.6 mm 5 m/s 744 mmHg 90%
    05:00 +2°C° 0.6 mm 6 m/s 745 mmHg 87%
    06:00 -1°C° 0.6 mm 7 m/s 746 mmHg 85%
    07:00 -3°C° 0 mm 7 m/s 747 mmHg 80%
    08:00 -3°C° 0.1 mm 7 m/s 748 mmHg 75%
    09:00 -4°C° 0.1 mm 7 m/s 749 mmHg 69%
    10:00 -4°C° 0.1 mm 7 m/s 751 mmHg 63%
    11:00 -4°C° 0 mm 7 m/s 752 mmHg 57%
    12:00 -4°C° 0 mm 7 m/s 752 mmHg 51%
    13:00 -3°C° 0 mm 7 m/s 753 mmHg 45%
    14:00 -4°C° 0 mm 7 m/s 754 mmHg 45%
    15:00 -4°C° 0 mm 7 m/s 754 mmHg 44%
    16:00 -6°C° 0 mm 7 m/s 755 mmHg 44%
    17:00 -5°C° 0 mm 6 m/s 756 mmHg 45%
    18:00 -6°C° 0 mm 6 m/s 756 mmHg 46%
    19:00 -6°C° 0 mm 5 m/s 757 mmHg 46%
    20:00 -6°C° 0 mm 5 m/s 758 mmHg 44%
    21:00 -6°C° 0 mm 5 m/s 758 mmHg 42%
    22:00 -6°C° 0 mm 5 m/s 759 mmHg 39%
    23:00 -6°C° 0 mm 5 m/s 759 mmHg 39%

    Mâine, 23 Februarie, Sâmbătă

    Timp Temperatura Precipitaţii Vânt Presiune Umiditate
    00:00 -7°C° 0 mm 5 m/s 760 mmHg 40%
    01:00 -7°C° 0 mm 4 m/s 760 mmHg 40%
    02:00 -7°C° 0 mm 4 m/s 760 mmHg 41%
    03:00 -7°C° 0 mm 4 m/s 760 mmHg 43%
    04:00 -6°C° 0 mm 3 m/s 760 mmHg 44%
    05:00 -6°C° 0 mm 3 m/s 761 mmHg 46%
    06:00 -6°C° 0 mm 3 m/s 761 mmHg 48%
    07:00 -6°C° 0 mm 3 m/s 761 mmHg 49%
    08:00 -6°C° 0 mm 3 m/s 761 mmHg 47%
    09:00 -5°C° 0 mm 3 m/s 762 mmHg 44%
    10:00 -4°C° 0 mm 3 m/s 762 mmHg 41%
    11:00 -4°C° 0 mm 3 m/s 762 mmHg 38%
    12:00 -2°C° 0 mm 3 m/s 761 mmHg 35%
    13:00 -2°C° 0 mm 2 m/s 761 mmHg 32%
    14:00 -2°C° 0 mm 2 m/s 761 mmHg 32%
    15:00 -1°C° 0 mm 2 m/s 761 mmHg 33%
    16:00 -1°C° 0 mm 2 m/s 761 mmHg 33%
    17:00 0°C° 0 mm 1 m/s 761 mmHg 37%
    18:00 -1°C° 0 mm 1 m/s 761 mmHg 40%
    19:00 -2°C° 0 mm 1 m/s 761 mmHg 43%
    20:00 -2°C° 0 mm 1 m/s 761 mmHg 44%
    21:00 -2°C° 0 mm 1 m/s 761 mmHg 44%
    22:00 -3°C° 0 mm 0 m/s 761 mmHg 45%
    23:00 -2°C° 0 mm 1 m/s 760 mmHg 45%

    Poimâine, 24 Februarie, Duminică

    Timp Temperatura Precipitaţii Vânt Presiune Umiditate
    00:00 -2°C° 0 mm 1 m/s 760 mmHg 45%
    01:00 -2°C° 0 mm 1 m/s 760 mmHg 45%
    02:00 -1°C° 0 mm 1 m/s 760 mmHg 44%
    03:00 -1°C° 0 mm 1 m/s 760 mmHg 42%
    04:00 -1°C° 0 mm 1 m/s 759 mmHg 41%
    05:00 -1°C° 0 mm 1 m/s 759 mmHg 41%
    06:00 -1°C° 0 mm 1 m/s 759 mmHg 41%
    07:00 -1°C° 0 mm 1 m/s 759 mmHg 42%
    08:00 -2°C° 0 mm 2 m/s 759 mmHg 37%
    09:00 -1°C° 0 mm 2 m/s 759 mmHg 32%
    10:00 +1°C° 0 mm 3 m/s 759 mmHg 27%
    11:00 +2°C° 0 mm 3 m/s 758 mmHg 25%
    12:00 +3°C° 0 mm 3 m/s 758 mmHg 24%
    13:00 +4°C° 0 mm 3 m/s 758 mmHg 23%
    14:00 +3°C° 0 mm 3 m/s 758 mmHg 27%
    15:00 +3°C° 0 mm 3 m/s 757 mmHg 31%
    16:00 +3°C° 0 mm 3 m/s 757 mmHg 35%
    17:00 +1°C° 0 mm 3 m/s 757 mmHg 39%
    18:00 0°C° 0 mm 3 m/s 757 mmHg 42%
    19:00 -1°C° 0 mm 3 m/s 758 mmHg 45%
    20:00 -1°C° 0 mm 3 m/s 758 mmHg 47%
    21:00 -1°C° 0 mm 3 m/s 758 mmHg 49%
    22:00 -1°C° 0 mm 3 m/s 758 mmHg 50%
    23:00 -1°C° 0 mm 3 m/s 758 mmHg 52%

    25 Februarie, Luni

    Timp Temperatura Precipitaţii Vânt Presiune Umiditate
    00:00 -1°C° 0 mm 3 m/s 758 mmHg 54%
    01:00 -1°C° 0 mm 3 m/s 758 mmHg 56%
    02:00 -1°C° 0 mm 3 m/s 758 mmHg 57%
    03:00 -2°C° 0 mm 4 m/s 757 mmHg 59%
    04:00 -2°C° 0 mm 4 m/s 757 mmHg 60%
    05:00 -2°C° 0 mm 4 m/s 757 mmHg 62%
    06:00 -2°C° 0 mm 4 m/s 757 mmHg 64%
    07:00 -2°C° 0 mm 4 m/s 757 mmHg 66%
    08:00 -1°C° 0 mm 4 m/s 757 mmHg 65%
    09:00 +1°C° 0 mm 4 m/s 757 mmHg 64%
    10:00 +3°C° 0 mm 4 m/s 758 mmHg 63%
    11:00 +4°C° 0 mm 4 m/s 757 mmHg 63%
    12:00 +5°C° 0 mm 4 m/s 757 mmHg 63%
    13:00 +6°C° 0 mm 4 m/s 757 mmHg 64%
    14:00 +6°C° 0 mm 4 m/s 757 mmHg 66%
    15:00 +7°C° 0 mm 3 m/s 757 mmHg 68%
    16:00 +7°C° 0 mm 3 m/s 757 mmHg 71%
    17:00 +4°C° 0 mm 3 m/s 757 mmHg 76%
    18:00 +3°C° 0 mm 3 m/s 757 mmHg 81%
    19:00 +2°C° 0 mm 3 m/s 757 mmHg 87%
    20:00 +2°C° 0 mm 3 m/s 757 mmHg 87%
    21:00 +1°C° 0 mm 3 m/s 756 mmHg 88%
    22:00 +1°C° 0 mm 3 m/s 756 mmHg 89%
    23:00 +1°C° 0 mm 3 m/s 756 mmHg 88%

    26 Februarie, Marţi

    Timp Temperatura Precipitaţii Vânt Presiune Umiditate
    00:00 0°C° 0 mm 4 m/s 755 mmHg 88%
    01:00 0°C° 0 mm 4 m/s 755 mmHg 88%
    02:00 0°C° 0 mm 5 m/s 754 mmHg 87%
    03:00 0°C° 0 mm 5 m/s 753 mmHg 86%
    04:00 -1°C° 0 mm 6 m/s 753 mmHg 84%
    05:00 -1°C° 0 mm 6 m/s 753 mmHg 82%
    06:00 +1°C° 0 mm 6 m/s 752 mmHg 79%
    07:00 +1°C° 0 mm 6 m/s 752 mmHg 76%
    08:00 +2°C° 0 mm 7 m/s 751 mmHg 71%
    09:00 +3°C° 0 mm 7 m/s 751 mmHg 66%
    10:00 +4°C° 0 mm 8 m/s 750 mmHg 61%
    11:00 +5°C° 0 mm 7 m/s 750 mmHg 60%
    12:00 +5°C° 0 mm 7 m/s 750 mmHg 60%
    13:00 +6°C° 0 mm 7 m/s 750 mmHg 59%
    14:00 +5°C° 0.1 mm 7 m/s 750 mmHg 63%
    15:00 +5°C° 0.1 mm 6 m/s 750 mmHg 67%
    16:00 +4°C° 0.1 mm 6 m/s 750 mmHg 71%
    17:00 +4°C° 0 mm 6 m/s 750 mmHg 75%
    18:00 +3°C° 0 mm 5 m/s 750 mmHg 79%
    19:00 +3°C° 0 mm 5 m/s 750 mmHg 83%
    20:00 +2°C° 0 mm 5 m/s 750 mmHg 83%
    21:00 +2°C° 0 mm 5 m/s 750 mmHg 83%
    22:00 +2°C° 0 mm 5 m/s 750 mmHg 83%
    23:00 +1°C° 0 mm 5 m/s 750 mmHg 82%

    27 Februarie, Miercuri

    Timp Temperatura Precipitaţii Vânt Presiune Umiditate
    00:00 +1°C° 0 mm 5 m/s 750 mmHg 81%
    01:00 0°C° 0 mm 5 m/s 750 mmHg 80%
    02:00 0°C° 0 mm 5 m/s 750 mmHg 80%
    03:00 0°C° 0 mm 4 m/s 750 mmHg 80%
    04:00 -1°C° 0 mm 4 m/s 750 mmHg 80%
    05:00 -1°C° 0 mm 4 m/s 750 mmHg 79%
    06:00 -1°C° 0 mm 4 m/s 750 mmHg 78%
    07:00 -1°C° 0 mm 4 m/s 750 mmHg 77%
    08:00 0°C° 0 mm 4 m/s 750 mmHg 69%
    09:00 +1°C° 0 mm 4 m/s 750 mmHg 61%
    10:00 +3°C° 0 mm 5 m/s 750 mmHg 54%
    11:00 +5°C° 0 mm 5 m/s 750 mmHg 50%
    12:00 +6°C° 0 mm 5 m/s 749 mmHg 46%
    13:00 +7°C° 0 mm 4 m/s 749 mmHg 42%
    14:00 +7°C° 0 mm 4 m/s 749 mmHg 43%
    15:00 +7°C° 0 mm 4 m/s 749 mmHg 44%
    16:00 +8°C° 0 mm 3 m/s 748 mmHg 45%
    17:00 +7°C° 0 mm 3 m/s 748 mmHg 50%
    18:00 +5°C° 0 mm 2 m/s 748 mmHg 56%
    19:00 +4°C° 0 mm 2 m/s 748 mmHg 61%
    20:00 +4°C° 0 mm 2 m/s 747 mmHg 63%
    21:00 +3°C° 0 mm 2 m/s 747 mmHg 64%
    22:00 +2°C° 0 mm 3 m/s 747 mmHg 66%
    23:00 +2°C° 0 mm 3 m/s 746 mmHg 66%
    Arată mai mult